#timestamp,LO_Frequency,Hit,StdDev 
1512644415.1,286046995.6,N
1512644435.9,286046987.5,N
1512644455.7,286046991.0,N
1512644475.6,286046991.2,N
1512644495.4,286046989.1,N
1512644515.2,286046988.0,N
1512644535.1,286046986.7,N
1512644536.0,286046986.7,N
1512644555.8,286046973.3,Y
1512644575.7,286046976.3,P
1512644595.5,286046981.4,N
1512644615.3,286046977.3,N
1512644635.2,286046980.7,N
1512644655.0,286046980.4,N
1512644655.9,286046980.4,N
1512644675.8,286046984.6,N
1512644695.6,286046991.2,N
1512644715.4,286046997.2,N
1512644735.3,286047001.4,N
1512644755.1,286047003.6,N
1512644775.8,286047010.4,N
1512644795.7,286047013.1,N
1512644815.5,286047021.9,N
1512644835.4,286047018.3,N
1512644855.2,286047014.2,N
1512644875.0,286047015.0,N
1512644875.9,286047015.0,N
1512644895.8,286047015.0,N
1512644915.6,286047014.6,N
1512644935.5,286047014.6,N
1512644955.3,286047015.3,N
1512644975.1,286047012.2,N
1512644995.9,286047012.4,N
1512645015.7,286047011.0,N
1512645035.5,286047012.2,N
1512645055.4,286047008.5,N
1512645075.2,286047006.6,N
1512645095.1,286047007.4,N
1512645096.0,286047007.4,N
1512645115.8,286047003.9,N
1512645135.6,286047004.9,N
1512645155.5,286047007.4,N
1512645175.3,286047005.5,N
1512645195.2,286047005.9,N
1512645215.9,286047000.5,N
1512645235.7,286046999.7,N
1512645255.6,286046996.8,N
1512645275.4,286046996.2,N
1512645295.2,286046995.3,N
1512645315.1,286046996.9,N
1512645316.0,286046996.9,N
1512645335.8,286046995.1,N
1512645355.7,286046995.9,N
1512645375.5,286046988.1,N
1512645395.3,286046984.2,N
1512645415.2,286046987.6,N
1512645435.0,286046982.7,N
1512645435.9,286046982.7,N
1512645455.8,286046985.0,N
1512645475.6,286046987.3,N
1512645495.4,286046994.4,N
1512645515.3,286046991.5,N
1512645535.1,286046989.7,N
1512645555.9,286046994.7,N
1512645575.7,286046991.5,N
1512645595.5,286046994.2,N
1512645615.4,286046988.5,N
1512645635.2,286046989.9,N
1512645655.0,286046986.7,N
1512645655.9,286046986.7,N
1512645675.8,286046989.9,N
1512645695.6,286046985.9,N
1512645715.5,286046982.9,N
1512645735.3,286046979.5,Y
1512645755.1,286046985.9,P
1512645775.9,286046989.1,P
1512645795.7,286046989.9,P
1512645815.6,286046987.4,Y
1512645835.4,286046999.0,P
1512645855.2,286047000.3,N
1512645875.1,286047005.9,N
1512645876.0,286047005.9,N
1512645895.8,286047005.2,N
1512645915.7,286047013.6,N
1512645935.5,286047011.7,N
1512645955.3,286047009.0,N
1512645975.2,286047011.6,N
1512645995.0,286047006.5,N
1512645995.9,286047006.5,N
1512646015.7,286047008.0,N
1512646035.6,286047010.0,N
1512646055.4,286047011.9,N
1512646075.3,286047008.9,N
1512646095.1,286047008.7,N
1512646115.8,286047012.3,N
1512646135.7,286047008.9,N
1512646155.5,286047006.5,N
1512646175.4,286047009.0,N
1512646195.2,286047010.3,N
1512646215.0,286047010.4,N
1512646215.9,286047010.4,N
1512646235.8,286047006.0,N
1512646255.6,286047007.2,N
1512646275.4,286047006.9,N
1512646295.3,286047000.1,N
1512646315.1,286047001.4,N
1512646335.9,286047002.3,N
1512646355.7,286046998.6,N
1512646375.5,286047005.7,N
1512646395.4,286046999.3,N
1512646415.2,286047001.9,N
1512646435.1,286047002.3,N
1512646436.0,286047002.3,N
1512646455.8,286047004.1,N
1512646475.6,286047000.1,N
1512646495.5,286047003.2,N
1512646515.3,286047002.5,N
1512646535.1,286046999.3,N
1512646555.9,286047000.3,N
1512646575.7,286047003.9,N
1512646595.6,286047000.7,N
1512646615.4,286046999.5,N
1512646635.2,286046994.9,N
1512646655.1,286046999.0,N
1512646656.0,286046999.0,N
1512646675.8,286046997.6,N
1512646695.7,286046994.0,N
1512646715.5,286046991.8,N
1512646735.3,286046986.9,N
1512646755.2,286046987.3,N
1512646775.0,286046987.6,N
1512646775.9,286046987.6,N
1512646795.8,286046982.6,Y
1512646815.6,286046985.6,P
1512646835.4,286046985.2,N
1512646855.3,286046983.0,N
1512646875.1,286046978.6,Y
1512646895.8,286046987.8,P
1512646915.7,286046980.5,P
1512646935.5,286046980.7,P
1512646955.4,286046984.6,Y
1512646975.2,286047000.5,P
1512646995.0,286047000.5,N
1512646995.9,286047000.5,N
1512647015.8,286046991.7,N
1512647035.6,286046989.4,N
1512647055.5,286046999.7,N
1512647075.3,286047002.6,N
1512647095.1,286047006.0,N
1512647115.9,286047005.2,N
1512647135.7,286047007.4,N
1512647155.5,286046997.1,N
1512647175.4,286046998.3,N
1512647195.2,286047005.4,N
1512647215.1,286047012.1,N
1512647216.0,286047012.1,N
1512647235.8,286047011.9,N
1512647255.6,286047011.0,N
1512647275.5,286047011.4,N
1512647295.3,286047015.0,N
1512647315.2,286047017.1,N
1512647335.9,286047012.2,N
1512647355.7,286047002.1,N
1512647375.6,286046996.9,N
1512647395.4,286047000.1,N
1512647415.2,286047004.0,N
1512647435.1,286047010.7,N
1512647436.0,286047010.7,N
1512647455.8,286047006.2,N
1512647475.7,286047012.2,N
1512647495.5,286047006.6,N
1512647515.3,286047007.2,N
1512647535.2,286047007.0,N
1512647555.0,286047002.6,N
1512647555.9,286047002.6,N
1512647605.8,286047003.3,E
1512647615.7,286047003.2,N
1512647635.5,286047001.9,P
1512647655.4,286046998.1,N
1512647675.2,286046993.4,Y
1512647695.1,286046991.7,P
1512647696.0,286046991.7,N
1512647715.8,286046997.1,N
1512647735.6,286046990.6,N
1512647755.5,286046984.8,Y
1512647775.3,286046994.8,P
1512647795.2,286046998.9,P
1512647815.9,286046998.8,N
1512647835.7,286047005.2,N
1512647855.6,286047003.3,N
1512647875.4,286046998.4,N
1512647895.3,286046997.0,N
1512647915.1,286047002.0,N
1512647916.0,286047002.0,N
1512647935.8,286047005.7,N
1512647955.7,286047013.3,Y
1512647975.5,286047010.3,P
1512647995.3,286047004.8,N
